This is the latest recevied weather packets stored in our database for station/object K7AEL. If no packets are shown the sender has not sent any weather packets the latest 10 day(s).
| Time | Temp. | Humidity | Pressure | Rain* | Wind** | Luminosity | Snow |
|---|---|---|---|---|---|---|---|
| 1777913133 | 26.67° C | 28% | 1014.2 hPa | 0 mm | - | 461 W/m² | - |
| 1777912829 | 26.67° C | 29% | 1014.7 hPa | 0 mm | - | 449 W/m² | - |
| 1777912526 | 26.67° C | 28% | 1014.5 hPa | 0 mm | - | 452 W/m² | - |
| 1777912222 | 26.11° C | 29% | 1014.4 hPa | 0 mm | - | 347 W/m² | - |
| 1777911918 | 26.67° C | 28% | 1014.5 hPa | 0 mm | - | 550 W/m² | - |
| 1777911615 | 26.11° C | 30% | 1014.5 hPa | 0 mm | - | 376 W/m² | - |
| 1777911311 | 26.11° C | 29% | 1014.8 hPa | 0 mm | - | 371 W/m² | - |
| 1777911009 | 25.56° C | 30% | 1014.7 hPa | 0 mm | - | 519 W/m² | - |
| 1777910706 | 25.56° C | 31% | 1014.7 hPa | 0 mm | - | 429 W/m² | - |
| 1777910403 | 25° C | 31% | 1014.8 hPa | 0 mm | - | 369 W/m² | - |
| 1777910099 | 25° C | 31% | 1015 hPa | 0 mm | - | 364 W/m² | - |
| 1777909797 | 25° C | 32% | 1014.8 hPa | 0 mm | - | 394 W/m² | - |
| 1777909493 | 25° C | 33% | 1014.7 hPa | 0 mm | - | 219 W/m² | - |
| 1777909191 | 24.44° C | 32% | 1014.7 hPa | 0 mm | - | 335 W/m² | - |
| 1777908889 | 24.44° C | 33% | 1014.5 hPa | 0 mm | - | 216 W/m² | - |
| 1777908586 | 23.89° C | 33% | 1014.7 hPa | 0 mm | - | 320 W/m² | - |
| 1777908282 | 24.44° C | 33% | 1014.8 hPa | 0 mm | - | 143 W/m² | - |
| 1777907978 | 24.44° C | 33% | 1014.5 hPa | 0 mm | - | 193 W/m² | - |
| 1777907675 | 23.89° C | 32% | 1014.5 hPa | 0 mm | - | 304 W/m² | - |
| 1777907370 | 23.89° C | 33% | 1014.7 hPa | 0 mm | - | 212 W/m² | - |
| 1777907067 | 23.89° C | 33% | 1014.5 hPa | 0 mm | - | 141 W/m² | - |
| 1777906764 | 23.89° C | 34% | 1014.7 hPa | 0 mm | - | 138 W/m² | - |
| 1777906461 | 23.89° C | 33% | 1014.7 hPa | 0 mm | - | 157 W/m² | - |
| 1777906158 | 23.33° C | 33% | 1014.4 hPa | 0 mm | - | 139 W/m² | - |
| 1777905854 | 23.33° C | 34% | 1014.5 hPa | 0 mm | - | 119 W/m² | - |
* Rain latest hour (hover to see other rain measurements)
** Current wind speed in m/s (hover to see current wind gust speed)